QPF
0.00 0.00 0.00 0.00 0.00 0.00 0.00 0.00 0.00 0.00 0.00 0.00 0.00 0.00 0.00 0.00 0.00 0.00 0.00 0.00 0.00 0.00 0.00 0.00 0.00 0.00 0.00 0.00 0.00 0.00 0.00 0.00 0.00 0.00 0.00 0.00 0.00 0.00 0.01 0.01 0.01 0.01
0.00 0.00 0.00 0.00 0.00 0.00 0.00 0.00 0.00 0.00 0.00 0.00 0.00 0.00 0.00 0.00 0.00 0.00 0.00 0.00 0.00 0.00 0.00 0.00 0.00 0.00 0.00 0.00 0.00 0.00 0.00 0.00 0.00 0.00 0.00 0.00 0.00 0.00 0.00 0.00 0.01 0.01
0.00 0.00 0.00 0.00 0.00 0.00 0.00 0.00 0.00 0.00 0.00 0.00 0.00 0.00 0.00 0.00 0.00 0.00 0.00 0.00 0.00 0.00 0.00 0.00 0.00 0.00 0.00 0.00 0.00 0.00 0.00 0.00 0.00 0.00 0.00 0.00 0.00 0.00 0.00 0.00 0.01 0.01
0.00 0.00 0.00 0.00 0.00 0.00 0.00 0.00 0.00 0.00 0.00 0.00 0.00 0.00 0.00 0.00 0.00 0.00 0.00 0.00 0.00 0.00 0.00 0.00 0.00 0.00 0.00 0.00 0.00 0.00 0.00 0.00 0.00 0.00 0.00 0.00 0.00 0.00 0.00 0.00 0.00 0.00
0.00 0.00 0.00 0.00 0.00 0.00 0.00 0.00 0.00 0.00 0.00 0.00 0.00 0.00 0.00 0.00 0.00 0.00 0.00 0.00 0.00 0.00 0.00 0.00 0.00 0.00 0.00 0.00 0.00 0.00 0.00 0.00 0.00 0.00 0.00 0.00 0.00 0.00 0.00 0.00 0.00 0.00
0.00 0.00 0.00 0.00 0.00 0.00 0.00 0.00 0.00 0.00 0.00 0.00 0.00 0.00 0.00 0.00 0.00 0.00 0.00 0.00 0.00 0.00 0.00 0.00 0.00 0.00 0.00 0.00 0.00 0.00 0.00 0.00 0.00 0.00 0.00 0.00 0.00 0.00 0.00 0.00 0.00 0.00
0.00 0.00 0.00 0.00 0.00 0.00 0.00 0.00 0.00 0.00 0.00 0.00 0.00 0.00 0.00 0.00 0.00 0.00 0.00 0.00 0.00 0.00 0.00 0.00 0.00 0.00 0.00 0.00 0.00 0.00 0.00 0.00 0.00 0.00 0.00 0.00 0.00 0.00 0.00 0.00 0.00 0.00
0.00 0.00 0.00 0.00 0.00 0.00 0.00 0.00 0.00 0.00 0.00 0.00 0.00 0.00 0.00 0.00 0.00 0.00 0.00 0.00 0.00 0.00 0.00 0.00 0.00 0.00 0.00 0.00 0.00 0.00 0.00 0.00 0.00 0.00 0.00 0.00 0.00 0.00 0.00 0.00 0.00 0.00
0.00 0.00 0.00 0.00 0.00 0.00 0.00 0.00 0.00 0.00 0.00 0.00 0.00 0.00 0.00 0.00 0.00 0.00 0.00 0.00 0.00 0.00 0.00 0.00 0.00 0.00 0.00 0.00 0.00 0.00 0.00 0.00 0.00 0.00 0.00 0.00 0.00 0.00 0.00 0.00 0.00 0.00
0.00 0.00 0.00 0.00 0.00 0.00 0.00 0.00 0.00 0.00 0.00 0.00 0.00 0.00 0.00 0.00 0.00 0.00 0.00 0.00 0.00 0.00 0.00 0.00 0.00 0.00 0.00 0.00 0.00 0.00 0.00 0.00 0.00 0.00 0.00 0.00 0.00 0.00 0.00 0.00 0.00 0.00
0.00 0.00 0.00 0.00 0.00 0.00 0.00 0.00 0.00 0.00 0.00 0.00 0.00 0.00 0.00 0.00 0.00 0.00 0.00 0.00 0.00 0.00 0.00 0.00 0.00 0.00 0.00 0.00 0.00 0.00 0.00 0.00 0.00 0.00 0.00 0.00 0.00 0.00 0.00 0.00 0.00 0.00
0.00 0.00 0.00 0.00 0.00 0.00 0.00 0.00 0.00 0.00 0.00 0.00 0.00 0.00 0.00 0.00 0.00 0.00 0.00 0.00 0.00 0.00 0.00 0.00 0.00 0.00 0.00 0.00 0.00 0.00 0.00 0.00 0.00 0.00 0.00 0.00 0.00 0.00 0.00 0.00 0.00 0.00
0.00 0.00 0.00 0.00 0.00 0.00 0.00 0.00 0.00 0.00 0.00 0.00 0.00 0.00 0.00 0.00 0.00 0.00 0.00 0.00 0.00 0.00 0.00 0.00 0.00 0.00 0.00 0.00 0.00 0.00 0.00 0.00 0.00 0.00 0.00 0.00 0.00 0.00 0.00 0.00 0.00 0.00
0.00 0.00 0.00 0.00 0.00 0.00 0.00 0.00 0.00 0.00 0.00 0.00 0.00 0.00 0.00 0.00 0.00 0.00 0.00 0.00 0.00 0.00 0.00 0.00 0.00 0.00 0.00 0.00 0.00 0.00 0.00 0.00 0.00 0.00 0.00 0.00 0.00 0.00 0.00 0.00 0.00 0.00
0.00 0.00 0.00 0.00 0.00 0.00 0.00 0.00 0.00 0.00 0.00 0.00 0.00 0.00 0.00 0.00 0.00 0.00 0.00 0.00 0.00 0.00 0.00 0.00 0.00 0.00 0.00 0.00 0.00 0.00 0.00 0.00 0.00 0.00 0.00 0.00 0.00 0.00 0.00 0.00 0.00 0.00
0.00 0.00 0.00 0.00 0.00 0.00 0.00 0.00 0.00 0.00 0.00 0.00 0.00 0.00 0.00 0.00 0.00 0.00 0.00 0.00 0.00 0.00 0.00 0.00 0.00 0.00 0.00 0.00 0.00 0.00 0.00 0.00 0.00 0.00 0.00 0.00 0.00 0.00 0.00 0.00 0.00 0.00
0.00 0.00 0.00 0.00 0.00 0.00 0.00 0.00 0.00 0.00 0.00 0.00 0.00 0.00 0.00 0.00 0.00 0.00 0.00 0.00 0.00 0.00 0.00 0.00 0.00 0.00 0.00 0.00 0.00 0.00 0.00 0.00 0.00 0.00 0.00 0.00 0.00 0.00 0.00 0.00 0.00 0.00
0.00 0.00 0.00 0.00 0.00 0.00 0.00 0.00 0.00 0.00 0.00 0.00 0.00 0.00 0.00 0.00 0.00 0.00 0.00 0.00 0.00 0.00 0.00 0.00 0.00 0.00 0.00 0.00 0.00 0.00 0.00 0.00 0.00 0.00 0.00 0.00 0.00 0.00 0.00 0.00 0.00 0.00
0.00 0.00 0.00 0.00 0.00 0.00 0.00 0.00 0.00 0.00 0.00 0.00 0.00 0.00 0.00 0.00 0.00 0.00 0.00 0.00 0.00 0.00 0.00 0.00 0.00 0.00 0.00 0.00 0.00 0.00 0.00 0.00 0.00 0.00 0.00 0.00 0.00 0.00 0.00 0.00 0.00 0.00
0.00 0.00 0.00 0.00 0.00 0.00 0.00 0.00 0.00 0.00 0.00 0.00 0.00 0.00 0.00 0.00 0.00 0.00 0.00 0.00 0.00 0.00 0.00 0.00 0.00 0.00 0.00 0.00 0.00 0.00 0.00 0.00 0.00 0.00 0.00 0.00 0.00 0.00 0.00 0.00 0.00 0.00
0.00 0.00 0.00 0.00 0.00 0.00 0.00 0.00 0.00 0.00 0.00 0.00 0.00 0.00 0.00 0.00 0.00 0.00 0.00 0.00 0.00 0.00 0.00 0.00 0.00 0.00 0.00 0.00 0.00 0.00 0.00 0.00 0.00 0.00 0.00 0.00 0.00 0.00 0.00 0.00 0.00 0.00
0.00 0.00 0.00 0.00 0.00 0.00 0.00 0.00 0.00 0.00 0.00 0.00 0.00 0.00 0.00 0.00 0.00 0.00 0.00 0.00 0.00 0.00 0.00 0.00 0.00 0.00 0.00 0.00 0.00 0.00 0.00 0.00 0.00 0.00 0.00 0.00 0.00 0.00 0.00 0.00 0.00 0.00
0.00 0.00 0.00 0.00 0.00 0.00 0.00 0.00 0.00 0.00 0.00 0.00 0.00 0.00 0.00 0.00 0.00 0.00 0.00 0.00 0.00 0.00 0.00 0.00 0.00 0.00 0.00 0.00 0.00 0.00 0.00 0.00 0.00 0.00 0.00 0.00 0.00 0.00 0.00 0.00 0.00 0.00
0.00 0.00 0.00 0.00 0.00 0.00 0.00 0.00 0.00 0.00 0.00 0.00 0.00 0.00 0.00 0.00 0.00 0.00 0.00 0.00 0.00 0.00 0.00 0.00 0.00 0.00 0.00 0.00 0.00 0.00 0.00 0.00 0.00 0.00 0.00 0.00 0.00 0.00 0.00 0.00 0.00 0.00
0.00 0.00 0.00 0.00 0.00 0.00 0.00 0.00 0.00 0.00 0.00 0.00 0.00 0.00 0.00 0.00 0.00 0.00 0.00 0.00 0.00 0.00 0.00 0.00 0.00 0.00 0.00 0.00 0.00 0.00 0.00 0.00 0.00 0.00 0.00 0.00 0.00 0.00 0.00 0.00 0.00 0.00
0.00 0.00 0.00 0.00 0.00 0.00 0.00 0.00 0.00 0.00 0.00 0.00 0.00 0.00 0.00 0.00 0.00 0.00 0.00 0.00 0.00 0.00 0.00 0.00 0.00 0.00 0.00 0.00 0.00 0.00 0.00 0.00 0.00 0.00 0.00 0.00 0.00 0.00 0.00 0.00 0.00 0.00
MSLP
1023.53 1023.61 1023.81 1023.93 1024.01 1024.01 1024.01 1023.93 1023.89 1023.81 1023.81 1023.73 1023.69 1023.65 1023.57 1023.49 1023.29 1023.13 1023.13 1023.09 1022.97 1022.85 1022.77 1022.69 1022.61 1022.53 1022.37 1022.13 1021.85 1021.53 1021.25 1021.05 1020.89 1020.61 1020.41 1020.09 1019.77 1019.45 1019.01 1018.61 1018.25 1017.93
1023.89 1023.97 1024.09 1024.21 1024.25 1024.25 1024.25 1024.17 1024.17 1024.17 1024.21 1024.13 1024.05 1023.89 1023.73 1023.61 1023.45 1023.25 1023.21 1023.33 1023.25 1023.17 1023.01 1022.85 1022.73 1022.65 1022.53 1022.33 1022.13 1021.81 1021.53 1021.29 1021.09 1020.85 1020.65 1020.45 1020.25 1019.93 1019.57 1019.21 1018.73 1018.17
1024.13 1024.25 1024.37 1024.45 1024.57 1024.57 1024.53 1024.41 1024.37 1024.45 1024.49 1024.49 1024.33 1024.17 1024.09 1023.89 1023.77 1023.53 1023.53 1023.61 1023.57 1023.45 1023.29 1023.13 1022.93 1022.81 1022.69 1022.57 1022.33 1022.13 1021.93 1021.69 1021.49 1021.25 1021.05 1020.85 1020.65 1020.41 1020.13 1019.73 1019.21 1018.73
1024.45 1024.57 1024.61 1024.69 1024.69 1024.69 1024.61 1024.49 1024.57 1024.69 1024.73 1024.65 1024.65 1024.57 1024.41 1024.25 1024.05 1023.93 1023.97 1023.89 1023.85 1023.73 1023.61 1023.37 1023.25 1023.09 1022.93 1022.81 1022.61 1022.37 1022.21 1022.09 1021.93 1021.73 1021.49 1021.25 1021.01 1020.81 1020.53 1020.17 1019.77 1019.37
1024.77 1024.77 1024.81 1024.85 1024.85 1024.77 1024.65 1024.65 1024.81 1024.97 1025.01 1025.05 1024.93 1024.81 1024.65 1024.53 1024.37 1024.29 1024.29 1024.25 1024.17 1024.09 1023.89 1023.73 1023.49 1023.33 1023.17 1023.01 1022.85 1022.73 1022.53 1022.41 1022.21 1022.01 1021.73 1021.49 1021.25 1021.05 1020.73 1020.45 1020.21 1019.81
1024.97 1024.97 1024.97 1024.97 1024.97 1024.89 1024.81 1024.89 1025.09 1025.21 1025.25 1025.17 1025.17 1025.09 1024.97 1024.81 1024.69 1024.65 1024.65 1024.65 1024.53 1024.41 1024.29 1024.05 1023.85 1023.65 1023.49 1023.29 1023.01 1022.93 1022.85 1022.69 1022.45 1022.13 1021.85 1021.57 1021.29 1021.01 1020.77 1020.53 1020.25 1019.97
1025.33 1025.25 1025.21 1025.13 1025.05 1024.97 1025.01 1025.21 1025.29 1025.33 1025.37 1025.37 1025.33 1025.29 1025.25 1025.21 1025.09 1025.01 1024.97 1024.97 1024.89 1024.73 1024.65 1024.45 1024.25 1024.05 1023.85 1023.65 1023.37 1023.21 1023.05 1022.85 1022.57 1022.25 1021.97 1021.65 1021.33 1020.97 1020.69 1020.45 1020.21 1019.97
1025.65 1025.57 1025.53 1025.49 1025.45 1025.45 1025.45 1025.53 1025.57 1025.57 1025.57 1025.57 1025.57 1025.61 1025.57 1025.61 1025.57 1025.49 1025.37 1025.29 1025.17 1025.09 1024.97 1024.85 1024.65 1024.45 1024.25 1023.97 1023.73 1023.53 1023.29 1023.01 1022.73 1022.45 1022.17 1021.85 1021.41 1021.05 1020.73 1020.49 1020.21 1019.85
1025.89 1025.93 1025.89 1025.85 1025.85 1025.85 1025.93 1025.93 1025.93 1025.89 1025.85 1025.89 1025.93 1026.01 1025.97 1025.93 1025.97 1025.89 1025.77 1025.61 1025.49 1025.41 1025.29 1025.13 1024.97 1024.81 1024.57 1024.33 1024.13 1023.93 1023.65 1023.33 1023.01 1022.69 1022.37 1021.97 1021.61 1021.25 1020.85 1020.45 1020.13 1019.85
1026.25 1026.25 1026.21 1026.25 1026.25 1026.33 1026.33 1026.33 1026.25 1026.21 1026.17 1026.21 1026.29 1026.33 1026.33 1026.29 1026.17 1026.13 1026.01 1025.89 1025.77 1025.65 1025.53 1025.45 1025.29 1025.09 1024.89 1024.65 1024.45 1024.25 1023.93 1023.57 1023.21 1022.89 1022.53 1022.21 1021.89 1021.53 1021.09 1020.73 1020.41 1020.05
1026.57 1026.61 1026.61 1026.61 1026.69 1026.69 1026.65 1026.61 1026.57 1026.61 1026.53 1026.53 1026.61 1026.61 1026.61 1026.57 1026.45 1026.33 1026.25 1026.09 1026.01 1025.93 1025.85 1025.73 1025.61 1025.41 1025.17 1024.93 1024.73 1024.53 1024.17 1023.81 1023.45 1023.05 1022.73 1022.45 1022.13 1021.81 1021.49 1021.17 1020.77 1020.41
1026.97 1026.93 1026.97 1027.01 1027.01 1027.01 1027.01 1026.97 1026.93 1026.89 1026.89 1026.85 1026.85 1026.85 1026.85 1026.81 1026.73 1026.61 1026.41 1026.41 1026.33 1026.21 1026.13 1026.01 1025.81 1025.61 1025.45 1025.25 1024.97 1024.65 1024.37 1024.01 1023.53 1023.09 1022.85 1022.57 1022.25 1021.93 1021.69 1021.37 1021.05 1020.65
1027.33 1027.33 1027.33 1027.33 1027.33 1027.33 1027.29 1027.25 1027.25 1027.25 1027.17 1027.13 1027.05 1027.09 1027.05 1027.01 1026.89 1026.81 1026.69 1026.65 1026.61 1026.45 1026.29 1026.17 1025.97 1025.73 1025.57 1025.37 1025.13 1024.85 1024.53 1024.21 1023.81 1023.37 1023.01 1022.61 1022.25 1022.01 1021.77 1021.49 1021.17 1020.85
1027.65 1027.61 1027.61 1027.57 1027.53 1027.53 1027.53 1027.53 1027.53 1027.49 1027.45 1027.41 1027.33 1027.29 1027.21 1027.21 1027.13 1027.05 1026.97 1026.89 1026.81 1026.69 1026.49 1026.25 1026.05 1025.81 1025.61 1025.49 1025.29 1025.01 1024.69 1024.37 1024.01 1023.65 1023.33 1022.93 1022.53 1022.21 1021.89 1021.57 1021.29 1021.05
1027.81 1027.85 1027.81 1027.77 1027.81 1027.81 1027.81 1027.85 1027.81 1027.77 1027.69 1027.65 1027.61 1027.57 1027.45 1027.41 1027.41 1027.33 1027.21 1027.09 1026.97 1026.85 1026.65 1026.41 1026.17 1026.05 1025.85 1025.77 1025.49 1025.09 1024.85 1024.53 1024.17 1023.89 1023.53 1023.17 1022.73 1022.33 1022.01 1021.65 1021.37 1021.13
1028.05 1028.09 1028.09 1028.09 1028.09 1028.13 1028.21 1028.17 1028.09 1028.05 1027.97 1027.93 1027.89 1027.85 1027.81 1027.69 1027.65 1027.53 1027.45 1027.33 1027.21 1027.01 1026.81 1026.61 1026.49 1026.29 1026.25 1026.05 1025.81 1025.45 1024.97 1024.69 1024.33 1024.01 1023.69 1023.33 1022.97 1022.49 1022.05 1021.73 1021.49 1021.25
1028.25 1028.33 1028.29 1028.37 1028.45 1028.45 1028.45 1028.45 1028.41 1028.37 1028.33 1028.25 1028.21 1028.17 1028.09 1028.01 1027.93 1027.77 1027.65 1027.53 1027.41 1027.29 1027.09 1026.89 1026.73 1026.49 1026.41 1026.13 1025.81 1025.53 1025.09 1024.77 1024.53 1024.17 1023.81 1023.49 1023.17 1022.77 1022.29 1021.85 1021.53 1021.25
1028.53 1028.53 1028.61 1028.73 1028.77 1028.81 1028.81 1028.81 1028.77 1028.73 1028.69 1028.65 1028.57 1028.49 1028.41 1028.29 1028.17 1028.09 1027.93 1027.81 1027.65 1027.49 1027.33 1027.13 1026.97 1026.69 1026.53 1026.21 1025.93 1025.61 1025.29 1024.93 1024.65 1024.37 1024.01 1023.65 1023.33 1022.93 1022.49 1022.05 1021.69 1021.33
1028.73 1028.81 1028.97 1029.05 1029.13 1029.13 1029.13 1029.05 1029.01 1028.93 1028.97 1028.97 1028.93 1028.89 1028.69 1028.57 1028.57 1028.37 1028.17 1028.05 1027.85 1027.73 1027.53 1027.33 1027.13 1026.81 1026.65 1026.37 1026.09 1025.77 1025.41 1025.05 1024.77 1024.57 1024.21 1023.89 1023.57 1023.13 1022.69 1022.29 1021.89 1021.53
1029.01 1029.09 1029.25 1029.37 1029.37 1029.33 1029.29 1029.21 1029.21 1029.29 1029.37 1029.33 1029.29 1029.13 1029.05 1028.93 1028.77 1028.61 1028.41 1028.25 1028.13 1028.01 1027.81 1027.53 1027.29 1027.01 1026.81 1026.53 1026.25 1025.93 1025.57 1025.21 1024.97 1024.69 1024.37 1024.09 1023.73 1023.33 1022.89 1022.53 1022.21 1021.81
1029.29 1029.37 1029.41 1029.45 1029.49 1029.53 1029.53 1029.57 1029.61 1029.65 1029.57 1029.53 1029.53 1029.45 1029.33 1029.21 1029.09 1028.89 1028.69 1028.53 1028.37 1028.21 1027.97 1027.73 1027.53 1027.25 1027.01 1026.69 1026.33 1026.01 1025.69 1025.29 1025.05 1024.73 1024.41 1024.13 1023.81 1023.45 1023.09 1022.77 1022.45 1022.05
1029.41 1029.49 1029.53 1029.61 1029.69 1029.77 1029.77 1029.81 1029.89 1029.93 1029.81 1029.77 1029.65 1029.57 1029.45 1029.33 1029.17 1029.05 1028.93 1028.77 1028.57 1028.37 1028.17 1028.01 1027.73 1027.45 1027.17 1026.81 1026.45 1026.17 1025.77 1025.41 1025.13 1024.81 1024.57 1024.25 1023.89 1023.57 1023.21 1022.97 1022.65 1022.17
1029.49 1029.53 1029.69 1029.81 1029.93 1029.93 1030.01 1030.09 1030.05 1029.97 1029.89 1029.93 1029.77 1029.69 1029.57 1029.45 1029.41 1029.33 1029.21 1029.05 1028.81 1028.61 1028.41 1028.29 1028.05 1027.65 1027.29 1026.93 1026.53 1026.33 1025.85 1025.53 1025.25 1024.93 1024.65 1024.41 1024.13 1023.81 1023.45 1023.13 1022.77 1022.21
1029.65 1029.69 1029.77 1029.93 1030.05 1030.09 1030.17 1030.17 1030.13 1030.09 1030.05 1030.09 1030.01 1029.93 1029.77 1029.73 1029.57 1029.45 1029.29 1029.17 1029.01 1028.85 1028.53 1028.49 1028.25 1027.81 1027.41 1027.01 1026.65 1026.41 1026.13 1025.85 1025.49 1025.21 1024.89 1024.61 1024.29 1023.89 1023.53 1023.17 1022.81 1022.29
1029.85 1029.93 1029.97 1030.05 1030.13 1030.25 1030.29 1030.25 1030.29 1030.29 1030.37 1030.29 1030.17 1030.09 1029.97 1029.93 1029.65 1029.57 1029.37 1029.25 1029.17 1029.05 1028.69 1028.61 1028.37 1027.93 1027.49 1027.13 1026.73 1026.49 1026.25 1025.97 1025.69 1025.37 1025.09 1024.77 1024.45 1024.05 1023.61 1023.21 1022.77 1022.29
1029.97 1030.01 1030.13 1030.13 1030.21 1030.33 1030.33 1030.41 1030.49 1030.49 1030.45 1030.41 1030.33 1030.29 1030.13 1030.01 1029.85 1029.77 1029.61 1029.45 1029.33 1029.13 1028.97 1028.77 1028.41 1028.05 1027.61 1027.21 1026.85 1026.53 1026.37 1026.09 1025.81 1025.49 1025.37 1025.09 1024.73 1024.29 1023.81 1023.25 1022.85 1022.33
Thickness
5611 5609 5608 5606 5605 5605 5604 5604 5604 5604 5603 5602 5601 5600 5599 5598 5598 5599 5598 5597 5597 5596 5595 5595 5594 5594 5594 5595 5597 5599 5600 5600 5601 5601 5601 5601 5602 5604 5605 5607 5608 5610
5606 5604 5603 5601 5600 5599 5599 5599 5598 5597 5596 5595 5595 5594 5594 5593 5593 5593 5593 5591 5590 5590 5590 5590 5589 5589 5589 5590 5591 5592 5593 5594 5594 5595 5595 5595 5595 5596 5597 5599 5601 5603
5600 5598 5597 5596 5594 5593 5593 5594 5593 5591 5590 5589 5589 5589 5588 5588 5587 5587 5586 5584 5584 5584 5584 5584 5583 5583 5583 5584 5585 5585 5586 5586 5587 5587 5587 5588 5588 5588 5589 5591 5593 5595
5594 5593 5592 5590 5589 5588 5588 5589 5587 5585 5584 5583 5583 5582 5582 5582 5581 5580 5579 5578 5577 5577 5577 5577 5577 5577 5577 5577 5577 5578 5579 5578 5579 5579 5580 5580 5581 5581 5582 5583 5585 5587
5588 5587 5586 5585 5584 5584 5584 5583 5581 5579 5578 5577 5577 5577 5576 5576 5575 5574 5572 5571 5571 5570 5570 5570 5571 5570 5570 5571 5571 5571 5571 5571 5571 5572 5573 5573 5574 5575 5575 5576 5577 5579
5583 5582 5581 5580 5580 5580 5579 5578 5575 5573 5572 5571 5571 5570 5570 5569 5568 5566 5565 5563 5563 5562 5562 5563 5563 5563 5563 5564 5564 5564 5563 5563 5564 5565 5566 5567 5568 5568 5569 5570 5571 5573
5577 5577 5576 5575 5575 5575 5574 5572 5569 5568 5567 5565 5565 5564 5562 5561 5560 5558 5557 5555 5555 5554 5554 5554 5554 5555 5555 5555 5556 5556 5556 5556 5557 5558 5558 5560 5562 5563 5564 5565 5565 5567
5571 5571 5570 5570 5569 5568 5567 5565 5563 5562 5561 5560 5559 5557 5555 5553 5551 5550 5549 5548 5547 5547 5546 5546 5546 5546 5547 5547 5547 5547 5548 5548 5549 5550 5551 5553 5555 5556 5557 5559 5560 5561
5565 5565 5564 5563 5562 5561 5559 5558 5557 5556 5555 5553 5551 5549 5547 5546 5544 5542 5542 5541 5540 5540 5539 5539 5538 5538 5538 5538 5539 5539 5539 5540 5541 5542 5543 5545 5547 5548 5550 5552 5553 5555
5559 5558 5558 5557 5555 5554 5552 5551 5550 5549 5548 5546 5544 5542 5540 5538 5537 5536 5535 5534 5534 5533 5532 5531 5530 5530 5530 5531 5531 5531 5531 5532 5533 5535 5536 5537 5538 5540 5541 5543 5545 5547
5553 5552 5551 5549 5548 5547 5546 5545 5544 5542 5540 5539 5536 5535 5533 5531 5530 5529 5528 5527 5527 5526 5524 5523 5523 5523 5522 5523 5522 5523 5523 5524 5526 5527 5528 5528 5529 5530 5532 5534 5535 5537
5546 5545 5544 5543 5541 5540 5539 5538 5537 5535 5534 5532 5530 5528 5526 5524 5524 5522 5521 5520 5519 5518 5517 5516 5516 5516 5516 5516 5516 5516 5516 5517 5518 5520 5520 5521 5521 5522 5523 5524 5525 5527
5539 5538 5537 5536 5534 5534 5533 5532 5530 5528 5527 5525 5523 5522 5520 5518 5517 5516 5514 5513 5511 5510 5510 5510 5510 5510 5509 5509 5509 5509 5510 5510 5511 5512 5513 5514 5514 5515 5515 5515 5517 5518
5532 5531 5530 5530 5528 5527 5526 5524 5523 5522 5520 5519 5517 5515 5514 5512 5510 5509 5508 5507 5505 5505 5504 5504 5504 5504 5503 5502 5501 5502 5502 5503 5503 5504 5504 5505 5506 5506 5507 5507 5508 5509
5526 5525 5524 5523 5522 5520 5519 5517 5516 5515 5513 5512 5510 5509 5508 5506 5504 5503 5502 5500 5499 5499 5497 5497 5497 5496 5495 5494 5494 5494 5494 5494 5494 5495 5496 5496 5497 5498 5499 5499 5499 5499
5520 5519 5518 5517 5515 5513 5512 5510 5509 5508 5506 5505 5504 5502 5500 5499 5498 5496 5495 5494 5493 5492 5491 5490 5489 5487 5485 5485 5485 5485 5486 5486 5486 5486 5487 5487 5488 5489 5490 5491 5490 5490
5515 5513 5512 5510 5508 5506 5505 5504 5502 5501 5500 5497 5496 5495 5493 5492 5491 5490 5489 5487 5486 5485 5483 5482 5481 5479 5478 5477 5477 5477 5477 5478 5477 5477 5477 5477 5478 5478 5480 5481 5482 5482
5508 5507 5505 5503 5501 5499 5498 5497 5495 5494 5492 5491 5489 5488 5487 5486 5484 5483 5481 5480 5479 5478 5476 5475 5474 5472 5471 5471 5470 5469 5469 5468 5468 5467 5468 5467 5467 5467 5468 5470 5471 5471
5502 5500 5498 5496 5495 5493 5492 5490 5489 5487 5485 5484 5482 5481 5480 5479 5477 5476 5475 5473 5472 5471 5470 5468 5467 5466 5465 5464 5463 5462 5461 5460 5459 5458 5457 5457 5456 5456 5457 5458 5458 5460
5496 5494 5492 5490 5488 5487 5485 5484 5482 5480 5478 5477 5476 5474 5473 5472 5471 5470 5469 5468 5467 5465 5463 5462 5461 5460 5459 5457 5456 5455 5453 5452 5450 5449 5448 5447 5446 5446 5446 5446 5445 5446
5490 5488 5486 5485 5482 5481 5479 5477 5475 5473 5472 5471 5470 5469 5467 5466 5465 5464 5462 5462 5460 5459 5457 5456 5454 5453 5452 5451 5450 5448 5446 5445 5443 5442 5441 5439 5438 5437 5435 5435 5434 5433
5484 5483 5481 5478 5476 5475 5473 5471 5469 5468 5467 5466 5465 5463 5462 5461 5460 5458 5456 5455 5454 5452 5450 5449 5447 5446 5444 5444 5443 5441 5440 5438 5436 5435 5433 5431 5430 5428 5426 5424 5422 5422
5479 5478 5475 5472 5471 5469 5467 5465 5464 5463 5462 5461 5460 5458 5457 5456 5454 5452 5451 5449 5447 5445 5443 5441 5440 5439 5438 5437 5436 5434 5433 5432 5429 5428 5426 5423 5421 5418 5416 5413 5410 5409
5474 5472 5470 5468 5466 5464 5462 5461 5459 5458 5457 5455 5454 5453 5451 5450 5449 5447 5445 5443 5441 5439 5437 5435 5433 5432 5431 5431 5429 5428 5426 5424 5422 5420 5418 5415 5412 5409 5406 5403 5399 5397
5469 5467 5465 5463 5461 5459 5458 5456 5455 5453 5452 5450 5449 5448 5446 5445 5443 5441 5440 5438 5435 5432 5431 5429 5426 5426 5425 5424 5423 5421 5419 5417 5415 5413 5409 5407 5404 5401 5398 5394 5390 5387
5465 5463 5461 5459 5457 5455 5454 5452 5450 5448 5447 5445 5445 5443 5441 5440 5438 5436 5434 5431 5429 5427 5425 5423 5421 5420 5419 5418 5417 5415 5413 5410 5408 5405 5402 5398 5395 5392 5389 5385 5381 5378